Starlink 33935

operational
NORAD ID: 63791 Int'l Des: 2025-091 Owner: SPXS Country: US Constellation: starlink
LEOCIRCULAR

关于 Starlink 33935

正在加载描述...

实时位置

正在加载3D地球...

即将过境

高度历史

Altitude vs Time

uPlot chart will show altitude changes over time

两行轨道根数

1 63791U 25091S 25305.33337963 .00044804 00000-0 16296-2 0 9991
2 63791 43.0042 57.7388 0001754 255.4062 262.7492 15.27543414 5889
Epoch: Nov 1, 2025 • Age: 24 hours

当前状态

高度 491.7 km
速度 7.62 km/s
星下点 -34.77°S, 119.82°E
发射日期 May 2, 2025
运行时间 0.5 years
类型 internet

技术详情

分类 Payload
质量 575.00 kg
干质量 530.00 kg
总质量 575.00 kg
长度 0.30 m
直径 4.10 m
跨度 29.00 m
形状 Box + pan
制造商 SPXS
平台类型 Starlink V2MO
阶段状态 In Orbit
所有者/国家 SPXS/US

大型星座

Loading constellations...